QPF
0.00 0.00 0.00 0.00 0.00 0.00 0.00 0.00 0.00 0.00 0.00 0.00 0.00 0.00 0.00 0.00 0.00 0.00 0.00 0.00 0.00 0.00 0.00 0.00 0.00 0.00 0.00 0.00 0.00 0.00 0.00 0.00 0.00 0.00 0.00 0.00 0.00 0.00 0.01 0.01 0.02 0.03 0.05 0.03 0.02 0.03 0.04 0.06 0.04
0.00 0.00 0.00 0.00 0.00 0.00 0.00 0.00 0.00 0.00 0.00 0.00 0.00 0.00 0.00 0.00 0.00 0.00 0.00 0.00 0.00 0.00 0.00 0.00 0.00 0.00 0.00 0.00 0.00 0.00 0.00 0.00 0.00 0.00 0.00 0.00 0.00 0.00 0.00 0.01 0.03 0.04 0.06 0.06 0.06 0.06 0.05 0.05 0.04
0.00 0.00 0.00 0.00 0.00 0.00 0.00 0.00 0.00 0.00 0.00 0.00 0.00 0.00 0.00 0.00 0.00 0.00 0.00 0.00 0.00 0.00 0.00 0.00 0.00 0.00 0.00 0.00 0.00 0.00 0.00 0.00 0.00 0.00 0.00 0.00 0.00 0.00 0.00 0.01 0.01 0.02 0.04 0.06 0.06 0.05 0.03 0.04 0.04
0.00 0.00 0.00 0.00 0.00 0.00 0.00 0.00 0.00 0.00 0.00 0.00 0.00 0.00 0.00 0.00 0.00 0.00 0.00 0.00 0.00 0.00 0.00 0.00 0.00 0.00 0.00 0.00 0.00 0.00 0.00 0.00 0.00 0.00 0.00 0.01 0.00 0.00 0.00 0.01 0.01 0.01 0.02 0.03 0.04 0.03 0.02 0.02 0.02
0.00 0.00 0.00 0.00 0.00 0.00 0.00 0.00 0.00 0.00 0.00 0.00 0.00 0.00 0.00 0.00 0.00 0.00 0.00 0.00 0.00 0.00 0.00 0.00 0.00 0.00 0.00 0.00 0.00 0.00 0.00 0.00 0.00 0.00 0.00 0.01 0.00 0.00 0.00 0.01 0.00 0.00 0.00 0.00 0.01 0.01 0.01 0.01 0.01
0.00 0.00 0.00 0.00 0.00 0.00 0.00 0.00 0.00 0.00 0.00 0.00 0.00 0.00 0.00 0.00 0.00 0.00 0.00 0.00 0.00 0.00 0.00 0.00 0.00 0.00 0.00 0.00 0.00 0.00 0.00 0.00 0.00 0.00 0.00 0.01 0.01 0.01 0.01 0.01 0.01 0.00 0.00 0.00 0.00 0.00 0.00 0.01 0.01
0.00 0.00 0.00 0.00 0.00 0.00 0.00 0.00 0.00 0.00 0.00 0.00 0.00 0.00 0.00 0.00 0.00 0.00 0.00 0.00 0.00 0.00 0.00 0.00 0.00 0.00 0.00 0.00 0.00 0.00 0.00 0.00 0.00 0.01 0.01 0.01 0.01 0.01 0.01 0.01 0.01 0.01 0.01 0.00 0.00 0.00 0.00 0.00 0.00
0.00 0.00 0.00 0.00 0.00 0.00 0.00 0.00 0.00 0.00 0.00 0.00 0.00 0.00 0.00 0.00 0.00 0.00 0.00 0.00 0.00 0.00 0.00 0.00 0.00 0.00 0.00 0.00 0.00 0.00 0.00 0.00 0.00 0.01 0.01 0.00 0.00 0.01 0.01 0.01 0.01 0.00 0.01 0.01 0.01 0.00 0.00 0.00 0.00
0.00 0.00 0.00 0.00 0.00 0.00 0.00 0.00 0.00 0.00 0.00 0.00 0.00 0.00 0.00 0.00 0.00 0.00 0.00 0.00 0.00 0.00 0.00 0.00 0.00 0.00 0.00 0.00 0.00 0.00 0.00 0.00 0.00 0.00 0.00 0.00 0.00 0.00 0.00 0.00 0.00 0.00 0.00 0.00 0.01 0.00 0.00 0.00 0.00
0.00 0.00 0.00 0.00 0.00 0.00 0.00 0.00 0.00 0.00 0.00 0.00 0.00 0.00 0.00 0.00 0.00 0.00 0.00 0.00 0.00 0.00 0.00 0.00 0.00 0.00 0.00 0.00 0.01 0.01 0.01 0.01 0.01 0.00 0.00 0.00 0.00 0.00 0.00 0.00 0.00 0.01 0.01 0.00 0.00 0.00 0.00 0.00 0.00
0.00 0.00 0.00 0.00 0.00 0.00 0.00 0.00 0.00 0.00 0.00 0.00 0.00 0.00 0.00 0.00 0.00 0.00 0.00 0.00 0.00 0.00 0.00 0.00 0.00 0.00 0.00 0.00 0.01 0.01 0.02 0.03 0.03 0.03 0.02 0.03 0.04 0.03 0.02 0.01 0.01 0.01 0.01 0.01 0.00 0.00 0.00 0.00 0.00
0.00 0.00 0.00 0.00 0.00 0.00 0.00 0.00 0.00 0.00 0.00 0.00 0.00 0.00 0.00 0.00 0.00 0.00 0.00 0.00 0.00 0.00 0.00 0.00 0.00 0.00 0.00 0.00 0.00 0.00 0.01 0.03 0.04 0.04 0.06 0.09 0.12 0.11 0.09 0.05 0.03 0.01 0.01 0.00 0.00 0.00 0.00 0.00 0.00
0.00 0.00 0.00 0.00 0.00 0.00 0.00 0.00 0.00 0.00 0.00 0.00 0.00 0.00 0.00 0.00 0.00 0.00 0.00 0.00 0.00 0.00 0.00 0.00 0.00 0.00 0.00 0.00 0.00 0.00 0.01 0.02 0.05 0.04 0.06 0.08 0.07 0.06 0.05 0.04 0.03 0.01 0.00 0.00 0.00 0.00 0.00 0.00 0.00
0.00 0.00 0.00 0.00 0.00 0.00 0.00 0.00 0.00 0.00 0.00 0.00 0.00 0.00 0.00 0.00 0.00 0.00 0.00 0.00 0.00 0.00 0.00 0.00 0.00 0.00 0.00 0.00 0.00 0.00 0.00 0.01 0.01 0.02 0.02 0.02 0.02 0.02 0.02 0.02 0.01 0.01 0.00 0.00 0.00 0.00 0.00 0.00 0.00
0.00 0.00 0.00 0.00 0.00 0.00 0.00 0.00 0.00 0.00 0.00 0.00 0.00 0.00 0.00 0.00 0.00 0.00 0.00 0.00 0.00 0.00 0.00 0.00 0.00 0.00 0.00 0.00 0.00 0.00 0.00 0.00 0.00 0.00 0.00 0.00 0.01 0.01 0.01 0.01 0.00 0.00 0.00 0.00 0.00 0.00 0.00 0.00 0.00
0.00 0.00 0.00 0.00 0.00 0.00 0.00 0.00 0.00 0.00 0.00 0.00 0.00 0.00 0.00 0.00 0.00 0.00 0.00 0.00 0.00 0.00 0.00 0.00 0.00 0.00 0.00 0.00 0.00 0.00 0.00 0.00 0.00 0.00 0.00 0.00 0.00 0.00 0.00 0.00 0.00 0.00 0.00 0.01 0.01 0.01 0.00 0.00 0.01
0.00 0.00 0.00 0.00 0.00 0.00 0.00 0.00 0.00 0.00 0.00 0.00 0.00 0.00 0.00 0.00 0.00 0.00 0.00 0.00 0.00 0.00 0.00 0.00 0.00 0.00 0.00 0.00 0.00 0.00 0.00 0.00 0.00 0.00 0.00 0.00 0.00 0.00 0.00 0.00 0.00 0.00 0.01 0.01 0.02 0.02 0.01 0.01 0.01
0.00 0.00 0.00 0.00 0.00 0.00 0.00 0.00 0.00 0.00 0.00 0.00 0.00 0.00 0.00 0.00 0.00 0.00 0.00 0.00 0.00 0.00 0.00 0.00 0.00 0.00 0.00 0.00 0.00 0.00 0.00 0.00 0.00 0.00 0.00 0.00 0.00 0.00 0.00 0.00 0.00 0.00 0.00 0.00 0.01 0.01 0.01 0.01 0.01
0.00 0.00 0.00 0.00 0.00 0.00 0.00 0.00 0.00 0.00 0.00 0.00 0.00 0.00 0.00 0.00 0.00 0.00 0.00 0.00 0.00 0.00 0.00 0.00 0.00 0.00 0.00 0.00 0.00 0.00 0.00 0.00 0.00 0.00 0.00 0.00 0.00 0.00 0.00 0.00 0.00 0.00 0.00 0.01 0.01 0.02 0.02 0.01 0.01
0.00 0.00 0.00 0.00 0.00 0.00 0.00 0.00 0.00 0.00 0.00 0.00 0.00 0.00 0.00 0.00 0.00 0.00 0.00 0.00 0.00 0.00 0.00 0.00 0.00 0.00 0.00 0.00 0.00 0.00 0.00 0.00 0.00 0.00 0.00 0.00 0.00 0.00 0.00 0.00 0.00 0.00 0.00 0.00 0.00 0.01 0.02 0.02 0.01
0.00 0.00 0.00 0.00 0.00 0.00 0.00 0.00 0.00 0.00 0.00 0.00 0.00 0.00 0.00 0.00 0.00 0.00 0.00 0.00 0.00 0.00 0.00 0.00 0.00 0.00 0.00 0.00 0.00 0.00 0.00 0.00 0.00 0.00 0.00 0.00 0.00 0.00 0.00 0.00 0.00 0.00 0.00 0.00 0.00 0.00 0.00 0.01 0.01
0.00 0.00 0.00 0.00 0.00 0.00 0.00 0.00 0.00 0.00 0.00 0.00 0.00 0.00 0.00 0.00 0.00 0.00 0.00 0.00 0.00 0.00 0.00 0.00 0.00 0.00 0.00 0.00 0.00 0.00 0.00 0.00 0.00 0.00 0.00 0.00 0.00 0.00 0.00 0.00 0.00 0.00 0.01 0.01 0.01 0.00 0.00 0.00 0.00
0.00 0.00 0.00 0.00 0.00 0.00 0.00 0.00 0.00 0.00 0.00 0.00 0.00 0.00 0.00 0.00 0.00 0.00 0.00 0.00 0.00 0.00 0.00 0.00 0.00 0.00 0.00 0.00 0.00 0.00 0.00 0.00 0.00 0.00 0.00 0.00 0.00 0.00 0.00 0.00 0.00 0.00 0.00 0.01 0.01 0.00 0.00 0.00 0.00
0.00 0.00 0.00 0.00 0.00 0.00 0.00 0.00 0.00 0.00 0.00 0.00 0.00 0.00 0.00 0.00 0.00 0.00 0.00 0.00 0.00 0.00 0.00 0.00 0.00 0.00 0.00 0.00 0.00 0.00 0.00 0.00 0.00 0.00 0.00 0.00 0.00 0.00 0.00 0.00 0.00 0.00 0.01 0.01 0.00 0.00 0.00 0.00 0.00
0.00 0.00 0.00 0.00 0.00 0.00 0.00 0.00 0.00 0.00 0.00 0.00 0.00 0.00 0.00 0.00 0.00 0.00 0.00 0.00 0.00 0.00 0.00 0.00 0.00 0.00 0.00 0.00 0.00 0.00 0.00 0.00 0.00 0.00 0.00 0.00 0.00 0.00 0.00 0.00 0.01 0.01 0.01 0.01 0.01 0.01 0.00 0.00 0.00
0.00 0.00 0.00 0.00 0.00 0.00 0.00 0.00 0.00 0.00 0.00 0.00 0.00 0.00 0.00 0.00 0.00 0.00 0.00 0.00 0.00 0.00 0.00 0.00 0.00 0.00 0.00 0.00 0.00 0.00 0.00 0.00 0.00 0.00 0.00 0.00 0.00 0.00 0.00 0.00 0.01 0.01 0.01 0.01 0.01 0.01 0.01 0.00 0.00
0.00 0.00 0.00 0.00 0.00 0.00 0.00 0.00 0.00 0.00 0.00 0.00 0.00 0.00 0.00 0.00 0.00 0.00 0.00 0.00 0.00 0.00 0.00 0.00 0.00 0.00 0.00 0.00 0.00 0.00 0.00 0.00 0.00 0.00 0.00 0.00 0.00 0.00 0.00 0.01 0.02 0.02 0.03 0.02 0.02 0.01 0.01 0.00 0.00
0.00 0.00 0.00 0.00 0.00 0.00 0.00 0.00 0.00 0.00 0.00 0.00 0.00 0.00 0.00 0.00 0.00 0.00 0.00 0.00 0.00 0.00 0.00 0.00 0.00 0.00 0.00 0.00 0.00 0.00 0.00 0.00 0.00 0.00 0.00 0.00 0.01 0.01 0.01 0.01 0.03 0.05 0.06 0.06 0.04 0.02 0.01 0.00 0.00
0.00 0.00 0.00 0.00 0.00 0.00 0.00 0.00 0.00 0.00 0.00 0.00 0.00 0.00 0.00 0.00 0.00 0.00 0.00 0.00 0.00 0.00 0.00 0.00 0.00 0.00 0.00 0.00 0.00 0.00 0.00 0.00 0.00 0.00 0.00 0.01 0.02 0.01 0.02 0.02 0.03 0.05 0.07 0.07 0.06 0.03 0.02 0.00 0.00
0.00 0.00 0.00 0.00 0.00 0.00 0.00 0.00 0.00 0.00 0.00 0.00 0.00 0.00 0.00 0.00 0.00 0.00 0.00 0.00 0.00 0.00 0.00 0.00 0.00 0.00 0.00 0.00 0.00 0.00 0.00 0.00 0.01 0.01 0.01 0.01 0.03 0.04 0.04 0.05 0.06 0.06 0.05 0.04 0.04 0.03 0.02 0.02 0.02
MSLP
1012.78 1013.59 1014.55 1015.50 1016.28 1016.74 1016.81 1016.52 1015.93 1015.21 1014.50 1013.94 1013.61 1013.52 1013.60 1013.76 1013.87 1013.84 1013.63 1013.25 1012.76 1012.27 1011.87 1011.64 1011.62 1011.77 1012.03 1012.34 1012.60 1012.78 1012.86 1012.87 1012.84 1012.83 1012.88 1013.00 1013.16 1013.35 1013.50 1013.60 1013.62 1013.57 1013.49 1013.42 1013.37 1013.38 1013.45 1013.56 1013.69
1013.38 1014.33 1015.35 1016.28 1016.93 1017.19 1017.04 1016.50 1015.70 1014.81 1013.99 1013.37 1013.02 1012.93 1013.03 1013.20 1013.32 1013.31 1013.11 1012.75 1012.31 1011.88 1011.56 1011.42 1011.47 1011.69 1012.01 1012.35 1012.64 1012.83 1012.92 1012.93 1012.91 1012.90 1012.95 1013.05 1013.20 1013.36 1013.49 1013.56 1013.56 1013.49 1013.40 1013.32 1013.27 1013.28 1013.35 1013.45 1013.57
1014.11 1015.14 1016.16 1017.00 1017.49 1017.55 1017.18 1016.45 1015.49 1014.49 1013.61 1012.97 1012.62 1012.53 1012.62 1012.77 1012.87 1012.83 1012.62 1012.27 1011.88 1011.52 1011.29 1011.24 1011.39 1011.69 1012.07 1012.44 1012.75 1012.95 1013.04 1013.05 1013.02 1013.00 1013.02 1013.10 1013.22 1013.34 1013.43 1013.46 1013.44 1013.36 1013.27 1013.19 1013.16 1013.18 1013.25 1013.36 1013.48
1014.92 1015.97 1016.93 1017.64 1017.95 1017.82 1017.28 1016.41 1015.38 1014.35 1013.49 1012.87 1012.54 1012.45 1012.51 1012.61 1012.64 1012.54 1012.29 1011.95 1011.58 1011.29 1011.15 1011.19 1011.43 1011.79 1012.21 1012.61 1012.92 1013.11 1013.19 1013.18 1013.13 1013.09 1013.09 1013.13 1013.21 1013.28 1013.34 1013.34 1013.30 1013.23 1013.15 1013.09 1013.07 1013.11 1013.20 1013.32 1013.43
1015.74 1016.76 1017.60 1018.14 1018.27 1017.99 1017.33 1016.42 1015.40 1014.44 1013.66 1013.13 1012.85 1012.76 1012.78 1012.80 1012.74 1012.55 1012.24 1011.88 1011.53 1011.29 1011.22 1011.33 1011.61 1012.01 1012.43 1012.81 1013.10 1013.26 1013.30 1013.27 1013.20 1013.14 1013.12 1013.14 1013.18 1013.23 1013.25 1013.24 1013.19 1013.12 1013.06 1013.02 1013.04 1013.10 1013.20 1013.32 1013.43
1016.50 1017.40 1018.09 1018.45 1018.43 1018.04 1017.35 1016.49 1015.58 1014.77 1014.15 1013.75 1013.54 1013.47 1013.45 1013.38 1013.21 1012.92 1012.55 1012.15 1011.81 1011.59 1011.55 1011.68 1011.96 1012.33 1012.70 1013.02 1013.23 1013.33 1013.33 1013.27 1013.19 1013.13 1013.10 1013.11 1013.15 1013.17 1013.18 1013.16 1013.11 1013.05 1013.01 1013.00 1013.04 1013.12 1013.23 1013.35 1013.45
1017.08 1017.83 1018.34 1018.53 1018.40 1017.96 1017.33 1016.60 1015.89 1015.31 1014.90 1014.67 1014.57 1014.52 1014.46 1014.31 1014.03 1013.65 1013.21 1012.77 1012.41 1012.19 1012.14 1012.24 1012.47 1012.74 1013.00 1013.20 1013.30 1013.32 1013.26 1013.17 1013.09 1013.03 1013.03 1013.05 1013.09 1013.12 1013.12 1013.10 1013.06 1013.01 1012.99 1013.00 1013.05 1013.14 1013.25 1013.36 1013.45
1017.42 1018.00 1018.33 1018.39 1018.18 1017.77 1017.26 1016.73 1016.29 1015.99 1015.83 1015.79 1015.80 1015.79 1015.70 1015.47 1015.11 1014.65 1014.15 1013.67 1013.30 1013.06 1012.96 1012.99 1013.10 1013.23 1013.33 1013.36 1013.32 1013.23 1013.10 1012.99 1012.91 1012.88 1012.91 1012.96 1013.02 1013.06 1013.07 1013.04 1013.00 1012.96 1012.95 1012.97 1013.03 1013.12 1013.23 1013.32 1013.39
1017.53 1017.93 1018.09 1018.04 1017.82 1017.49 1017.16 1016.89 1016.75 1016.74 1016.84 1016.99 1017.11 1017.14 1017.02 1016.74 1016.32 1015.80 1015.27 1014.77 1014.38 1014.11 1013.95 1013.87 1013.83 1013.78 1013.68 1013.53 1013.33 1013.12 1012.92 1012.78 1012.71 1012.71 1012.77 1012.85 1012.92 1012.97 1012.98 1012.96 1012.91 1012.88 1012.87 1012.89 1012.96 1013.04 1013.13 1013.21 1013.25
1017.43 1017.66 1017.70 1017.59 1017.39 1017.19 1017.08 1017.09 1017.24 1017.52 1017.86 1018.18 1018.39 1018.45 1018.31 1017.99 1017.53 1016.99 1016.44 1015.95 1015.55 1015.25 1015.03 1014.84 1014.64 1014.40 1014.10 1013.75 1013.39 1013.06 1012.79 1012.62 1012.55 1012.57 1012.65 1012.75 1012.83 1012.87 1012.87 1012.83 1012.78 1012.74 1012.72 1012.75 1012.81 1012.89 1012.96 1013.02 1013.04
1017.22 1017.32 1017.27 1017.14 1017.01 1016.97 1017.07 1017.35 1017.78 1018.31 1018.84 1019.28 1019.56 1019.63 1019.47 1019.11 1018.63 1018.09 1017.56 1017.10 1016.72 1016.40 1016.12 1015.83 1015.49 1015.07 1014.59 1014.07 1013.57 1013.13 1012.79 1012.59 1012.51 1012.53 1012.60 1012.69 1012.75 1012.76 1012.72 1012.66 1012.58 1012.53 1012.52 1012.55 1012.61 1012.68 1012.74 1012.77 1012.77
1017.04 1017.04 1016.93 1016.82 1016.78 1016.90 1017.21 1017.72 1018.38 1019.09 1019.76 1020.28 1020.58 1020.63 1020.43 1020.06 1019.56 1019.04 1018.55 1018.13 1017.78 1017.47 1017.16 1016.79 1016.33 1015.78 1015.16 1014.51 1013.90 1013.38 1012.99 1012.74 1012.64 1012.62 1012.66 1012.69 1012.69 1012.65 1012.56 1012.45 1012.35 1012.29 1012.27 1012.30 1012.36 1012.43 1012.48 1012.49 1012.46
1017.00 1016.93 1016.81 1016.73 1016.79 1017.06 1017.55 1018.24 1019.06 1019.90 1020.63 1021.17 1021.45 1021.45 1021.22 1020.81 1020.32 1019.82 1019.38 1019.01 1018.70 1018.41 1018.09 1017.68 1017.15 1016.51 1015.80 1015.07 1014.39 1013.81 1013.38 1013.09 1012.94 1012.87 1012.83 1012.77 1012.68 1012.55 1012.38 1012.22 1012.09 1012.01 1011.99 1012.03 1012.10 1012.17 1012.21 1012.21 1012.16
1017.20 1017.09 1016.97 1016.94 1017.09 1017.48 1018.11 1018.92 1019.84 1020.73 1021.47 1021.98 1022.21 1022.15 1021.87 1021.43 1020.93 1020.46 1020.05 1019.73 1019.46 1019.20 1018.88 1018.45 1017.89 1017.22 1016.47 1015.72 1015.01 1014.41 1013.95 1013.62 1013.40 1013.24 1013.09 1012.92 1012.71 1012.47 1012.21 1011.98 1011.81 1011.72 1011.71 1011.76 1011.84 1011.92 1011.95 1011.93 1011.85
1017.66 1017.53 1017.42 1017.43 1017.66 1018.13 1018.85 1019.74 1020.69 1021.59 1022.30 1022.75 1022.90 1022.78 1022.44 1021.97 1021.47 1021.00 1020.63 1020.33 1020.09 1019.84 1019.52 1019.09 1018.54 1017.87 1017.13 1016.39 1015.69 1015.10 1014.62 1014.25 1013.96 1013.70 1013.43 1013.12 1012.78 1012.41 1012.05 1011.75 1011.54 1011.43 1011.42 1011.48 1011.57 1011.66 1011.69 1011.66 1011.56
1018.34 1018.20 1018.10 1018.15 1018.42 1018.96 1019.72 1020.64 1021.59 1022.46 1023.12 1023.50 1023.59 1023.40 1023.02 1022.52 1022.00 1021.54 1021.17 1020.88 1020.63 1020.37 1020.05 1019.62 1019.07 1018.43 1017.72 1017.02 1016.37 1015.80 1015.32 1014.91 1014.55 1014.19 1013.79 1013.34 1012.86 1012.37 1011.91 1011.53 1011.28 1011.14 1011.13 1011.19 1011.29 1011.38 1011.41 1011.37 1011.26
1019.15 1018.99 1018.90 1018.97 1019.28 1019.85 1020.64 1021.56 1022.49 1023.32 1023.93 1024.25 1024.29 1024.06 1023.65 1023.13 1022.60 1022.13 1021.74 1021.42 1021.14 1020.85 1020.50 1020.06 1019.51 1018.89 1018.23 1017.58 1016.98 1016.44 1015.96 1015.53 1015.11 1014.65 1014.14 1013.57 1012.96 1012.35 1011.80 1011.35 1011.03 1010.87 1010.83 1010.89 1010.98 1011.07 1011.10 1011.06 1010.95
1019.97 1019.80 1019.71 1019.81 1020.14 1020.73 1021.53 1022.44 1023.35 1024.15 1024.72 1025.01 1025.02 1024.78 1024.36 1023.85 1023.31 1022.82 1022.39 1022.02 1021.68 1021.32 1020.92 1020.44 1019.88 1019.27 1018.65 1018.05 1017.49 1016.99 1016.53 1016.08 1015.61 1015.08 1014.47 1013.79 1013.08 1012.37 1011.73 1011.21 1010.83 1010.62 1010.54 1010.56 1010.64 1010.72 1010.75 1010.72 1010.62
1020.71 1020.52 1020.44 1020.55 1020.91 1021.53 1022.34 1023.25 1024.15 1024.92 1025.48 1025.77 1025.79 1025.56 1025.16 1024.66 1024.12 1023.61 1023.13 1022.70 1022.28 1021.83 1021.35 1020.81 1020.22 1019.60 1019.00 1018.43 1017.91 1017.44 1017.00 1016.55 1016.04 1015.46 1014.79 1014.04 1013.24 1012.46 1011.73 1011.13 1010.69 1010.40 1010.26 1010.23 1010.27 1010.32 1010.36 1010.35 1010.29
1021.27 1021.08 1021.02 1021.17 1021.57 1022.22 1023.05 1023.98 1024.88 1025.66 1026.22 1026.52 1026.56 1026.37 1026.01 1025.53 1025.00 1024.47 1023.95 1023.44 1022.93 1022.39 1021.82 1021.20 1020.56 1019.93 1019.32 1018.77 1018.28 1017.83 1017.41 1016.96 1016.44 1015.83 1015.12 1014.32 1013.47 1012.62 1011.82 1011.14 1010.61 1010.23 1010.01 1009.91 1009.89 1009.91 1009.94 1009.96 1009.96
1021.67 1021.48 1021.46 1021.67 1022.13 1022.83 1023.70 1024.65 1025.57 1026.35 1026.92 1027.25 1027.32 1027.18 1026.85 1026.41 1025.90 1025.35 1024.80 1024.22 1023.62 1022.99 1022.33 1021.64 1020.95 1020.28 1019.67 1019.12 1018.64 1018.21 1017.79 1017.35 1016.83 1016.22 1015.49 1014.66 1013.77 1012.87 1012.00 1011.24 1010.61 1010.12 1009.79 1009.59 1009.50 1009.49 1009.52 1009.57 1009.63
1021.94 1021.78 1021.81 1022.09 1022.64 1023.40 1024.32 1025.30 1026.24 1027.03 1027.61 1027.95 1028.04 1027.93 1027.64 1027.22 1026.72 1026.18 1025.59 1024.97 1024.31 1023.61 1022.88 1022.13 1021.40 1020.70 1020.07 1019.51 1019.03 1018.61 1018.20 1017.76 1017.25 1016.63 1015.89 1015.05 1014.13 1013.17 1012.24 1011.39 1010.65 1010.05 1009.60 1009.30 1009.13 1009.06 1009.09 1009.18 1009.31
1022.17 1022.05 1022.16 1022.54 1023.17 1024.01 1024.99 1025.99 1026.93 1027.70 1028.27 1028.60 1028.69 1028.58 1028.31 1027.91 1027.42 1026.88 1026.28 1025.64 1024.95 1024.21 1023.44 1022.66 1021.90 1021.18 1020.54 1019.98 1019.50 1019.07 1018.65 1018.21 1017.69 1017.06 1016.31 1015.44 1014.49 1013.48 1012.48 1011.54 1010.69 1009.97 1009.41 1009.00 1008.75 1008.64 1008.66 1008.79 1008.99
1022.44 1022.38 1022.59 1023.07 1023.80 1024.71 1025.72 1026.74 1027.65 1028.39 1028.91 1029.19 1029.25 1029.12 1028.83 1028.44 1027.96 1027.42 1026.83 1026.19 1025.50 1024.76 1023.99 1023.21 1022.45 1021.73 1021.08 1020.52 1020.02 1019.57 1019.13 1018.67 1018.12 1017.47 1016.69 1015.79 1014.79 1013.73 1012.66 1011.62 1010.67 1009.85 1009.18 1008.68 1008.36 1008.22 1008.23 1008.39 1008.66
1022.84 1022.86 1023.16 1023.75 1024.56 1025.52 1026.55 1027.54 1028.41 1029.07 1029.51 1029.72 1029.71 1029.53 1029.22 1028.81 1028.33 1027.81 1027.24 1026.63 1025.97 1025.26 1024.52 1023.77 1023.03 1022.33 1021.68 1021.10 1020.59 1020.10 1019.63 1019.11 1018.51 1017.81 1016.98 1016.02 1014.97 1013.84 1012.70 1011.58 1010.55 1009.64 1008.89 1008.33 1007.96 1007.80 1007.82 1008.01 1008.33
1023.40 1023.51 1023.91 1024.58 1025.45 1026.44 1027.45 1028.39 1029.17 1029.73 1030.07 1030.17 1030.08 1029.84 1029.48 1029.05 1028.58 1028.08 1027.55 1026.98 1026.37 1025.72 1025.04 1024.33 1023.63 1022.95 1022.31 1021.72 1021.16 1020.63 1020.09 1019.49 1018.82 1018.03 1017.13 1016.10 1014.98 1013.79 1012.57 1011.40 1010.30 1009.34 1008.54 1007.95 1007.57 1007.41 1007.45 1007.66 1008.02
1024.15 1024.34 1024.83 1025.55 1026.44 1027.42 1028.38 1029.23 1029.89 1030.34 1030.55 1030.55 1030.37 1030.06 1029.67 1029.23 1028.78 1028.31 1027.82 1027.31 1026.77 1026.19 1025.57 1024.92 1024.25 1023.59 1022.95 1022.33 1021.73 1021.12 1020.49 1019.80 1019.02 1018.14 1017.13 1016.02 1014.82 1013.57 1012.31 1011.09 1009.96 1008.99 1008.19 1007.60 1007.24 1007.10 1007.17 1007.42 1007.80
1025.06 1025.33 1025.87 1026.61 1027.49 1028.41 1029.27 1030.00 1030.54 1030.85 1030.94 1030.84 1030.59 1030.24 1029.84 1029.41 1028.99 1028.56 1028.14 1027.70 1027.22 1026.70 1026.14 1025.54 1024.90 1024.25 1023.59 1022.93 1022.26 1021.57 1020.84 1020.03 1019.13 1018.14 1017.03 1015.83 1014.56 1013.26 1011.97 1010.74 1009.63 1008.68 1007.92 1007.38 1007.06 1006.96 1007.07 1007.34 1007.73
1026.10 1026.43 1026.99 1027.71 1028.52 1029.34 1030.07 1030.66 1031.06 1031.25 1031.24 1031.07 1030.79 1030.43 1030.05 1029.66 1029.29 1028.93 1028.57 1028.19 1027.77 1027.31 1026.78 1026.21 1025.58 1024.92 1024.23 1023.52 1022.77 1021.98 1021.13 1020.21 1019.20 1018.09 1016.90 1015.63 1014.31 1012.98 1011.69 1010.50 1009.43 1008.54 1007.85 1007.38 1007.13 1007.09 1007.23 1007.52 1007.91
1027.21 1027.58 1028.12 1028.77 1029.48 1030.16 1030.74 1031.18 1031.45 1031.53 1031.46 1031.26 1030.97 1030.65 1030.32 1030.01 1029.71 1029.42 1029.13 1028.81 1028.44 1028.01 1027.51 1026.93 1026.30 1025.61 1024.87 1024.08 1023.26 1022.37 1021.43 1020.40 1019.29 1018.10 1016.84 1015.53 1014.19 1012.87 1011.62 1010.48 1009.49 1008.69 1008.09 1007.71 1007.53 1007.55 1007.72 1008.01 1008.38
Thickness
5739 5740 5738 5727 5705 5687 5691 5705 5721 5732 5741 5751 5755 5748 5740 5737 5733 5728 5756 5766 5764 5762 5760 5758 5756 5754 5752 5750 5748 5746 5744 5742 5740 5738 5738 5738 5738 5737 5736 5736 5736 5736 5736 5736 5736 5736 5735 5735 5735
5736 5736 5726 5710 5689 5676 5690 5707 5718 5731 5743 5750 5749 5743 5739 5738 5746 5749 5756 5761 5762 5759 5756 5755 5753 5751 5749 5746 5744 5742 5739 5737 5735 5734 5734 5733 5733 5733 5732 5732 5732 5732 5732 5732 5731 5731 5731 5731 5731
5733 5730 5710 5695 5688 5683 5698 5715 5723 5733 5742 5745 5741 5739 5734 5735 5742 5747 5756 5759 5757 5754 5752 5751 5749 5747 5744 5741 5738 5736 5734 5732 5731 5730 5729 5728 5728 5728 5728 5727 5728 5728 5728 5728 5727 5727 5727 5727 5727
5726 5715 5703 5688 5692 5699 5710 5720 5726 5727 5733 5739 5738 5729 5731 5738 5743 5748 5753 5753 5750 5748 5746 5745 5743 5741 5738 5735 5732 5730 5728 5726 5725 5725 5724 5723 5722 5722 5722 5722 5722 5722 5722 5723 5723 5723 5723 5723 5723
5720 5702 5688 5679 5688 5702 5711 5718 5720 5717 5721 5726 5730 5721 5722 5734 5741 5745 5747 5747 5744 5741 5738 5736 5734 5732 5730 5727 5725 5723 5721 5720 5719 5719 5718 5718 5717 5716 5716 5716 5716 5716 5716 5717 5718 5718 5718 5718 5719
5704 5693 5674 5673 5686 5700 5708 5715 5718 5713 5716 5721 5721 5715 5715 5726 5732 5735 5737 5737 5736 5733 5731 5728 5726 5724 5722 5720 5718 5716 5714 5713 5712 5712 5712 5711 5711 5711 5711 5711 5711 5710 5710 5711 5712 5713 5714 5714 5714
5697 5685 5677 5681 5685 5696 5704 5713 5709 5709 5709 5712 5717 5708 5709 5717 5725 5729 5729 5727 5725 5723 5721 5719 5717 5715 5713 5711 5710 5708 5706 5705 5705 5704 5705 5705 5705 5705 5705 5705 5705 5704 5704 5705 5705 5706 5708 5709 5709
5700 5685 5681 5677 5685 5688 5698 5706 5709 5707 5704 5710 5710 5695 5693 5705 5717 5721 5720 5716 5712 5710 5708 5705 5704 5704 5702 5701 5701 5699 5699 5698 5697 5697 5697 5697 5697 5697 5698 5698 5698 5698 5698 5699 5699 5700 5701 5702 5703
5702 5676 5671 5683 5686 5688 5697 5698 5702 5707 5698 5692 5686 5680 5681 5694 5704 5703 5701 5699 5696 5696 5694 5693 5693 5694 5694 5693 5692 5691 5691 5691 5691 5690 5689 5689 5689 5689 5690 5691 5691 5691 5692 5693 5694 5694 5695 5696 5696
5689 5671 5682 5693 5695 5692 5696 5694 5695 5693 5681 5674 5671 5671 5677 5684 5684 5681 5678 5677 5678 5679 5681 5681 5682 5684 5686 5687 5686 5684 5684 5685 5685 5684 5683 5683 5682 5682 5683 5684 5685 5685 5686 5687 5688 5689 5689 5690 5690
5694 5683 5690 5697 5700 5699 5694 5688 5687 5681 5658 5654 5653 5655 5662 5666 5663 5660 5658 5659 5660 5663 5666 5669 5671 5674 5676 5677 5677 5676 5676 5677 5677 5677 5677 5677 5676 5676 5677 5678 5679 5679 5680 5681 5682 5683 5683 5684 5685
5694 5696 5698 5699 5701 5699 5690 5680 5667 5664 5649 5650 5651 5653 5655 5651 5646 5643 5642 5643 5646 5650 5652 5656 5658 5661 5663 5665 5666 5666 5667 5668 5669 5669 5669 5669 5669 5669 5671 5672 5672 5673 5673 5674 5675 5677 5678 5679 5681
5695 5697 5700 5700 5697 5690 5681 5669 5660 5646 5645 5646 5648 5647 5642 5638 5633 5631 5631 5632 5634 5636 5638 5642 5645 5645 5647 5650 5651 5653 5655 5657 5658 5659 5660 5660 5661 5661 5663 5665 5665 5666 5666 5667 5668 5670 5672 5673 5675
5697 5698 5696 5697 5693 5685 5670 5661 5654 5636 5637 5639 5638 5633 5629 5626 5623 5623 5622 5620 5619 5620 5622 5627 5631 5631 5633 5634 5635 5638 5640 5644 5646 5648 5649 5650 5650 5651 5653 5655 5656 5658 5659 5660 5662 5663 5665 5666 5668
5697 5690 5687 5692 5689 5680 5672 5647 5637 5631 5633 5630 5624 5622 5620 5617 5615 5611 5608 5606 5606 5607 5609 5612 5615 5615 5617 5619 5620 5622 5623 5625 5629 5633 5637 5639 5639 5640 5641 5642 5644 5647 5650 5652 5654 5655 5657 5658 5660
5685 5674 5667 5681 5686 5678 5661 5629 5626 5627 5629 5620 5612 5608 5608 5606 5602 5600 5598 5596 5596 5595 5595 5595 5597 5598 5599 5601 5602 5605 5607 5609 5610 5613 5618 5624 5628 5629 5630 5630 5631 5634 5637 5640 5642 5645 5647 5649 5651
5659 5654 5659 5668 5676 5672 5652 5626 5620 5618 5619 5607 5599 5596 5594 5593 5591 5589 5587 5585 5584 5583 5582 5581 5581 5582 5582 5584 5586 5587 5588 5590 5592 5594 5598 5603 5610 5615 5616 5618 5620 5622 5624 5628 5631 5634 5636 5638 5641
5650 5651 5653 5656 5665 5658 5636 5616 5607 5603 5602 5591 5586 5583 5581 5578 5574 5574 5573 5572 5571 5570 5570 5569 5569 5568 5568 5568 5569 5571 5571 5571 5572 5574 5576 5581 5588 5594 5600 5604 5607 5609 5610 5614 5618 5621 5624 5626 5629
5660 5655 5650 5656 5659 5649 5623 5606 5597 5594 5590 5581 5574 5568 5564 5560 5559 5559 5558 5556 5556 5555 5553 5553 5552 5552 5552 5551 5549 5551 5551 5550 5551 5552 5554 5558 5564 5570 5578 5587 5592 5594 5595 5598 5603 5606 5608 5611 5613
5655 5649 5642 5643 5645 5635 5606 5596 5589 5585 5577 5567 5558 5550 5546 5545 5544 5544 5541 5537 5533 5531 5529 5528 5526 5526 5527 5528 5527 5528 5528 5528 5530 5533 5536 5538 5542 5549 5557 5565 5573 5578 5580 5582 5586 5589 5593 5596 5597
5646 5643 5638 5633 5632 5628 5601 5589 5580 5571 5560 5552 5540 5534 5528 5528 5524 5522 5519 5513 5509 5506 5502 5501 5499 5500 5501 5503 5503 5506 5507 5507 5508 5512 5516 5520 5523 5529 5537 5545 5554 5561 5564 5566 5569 5572 5576 5578 5580
5634 5644 5638 5630 5619 5609 5609 5574 5565 5554 5539 5529 5517 5511 5507 5503 5500 5497 5492 5487 5482 5478 5475 5473 5472 5473 5474 5475 5475 5475 5477 5477 5478 5481 5487 5493 5499 5505 5513 5522 5532 5540 5547 5550 5553 5556 5559 5562 5564
5636 5640 5632 5626 5613 5603 5598 5569 5545 5541 5521 5506 5497 5491 5486 5482 5476 5471 5464 5458 5454 5450 5448 5446 5446 5446 5446 5446 5445 5445 5444 5444 5446 5450 5457 5464 5472 5479 5487 5496 5506 5516 5525 5531 5535 5538 5541 5544 5546
5633 5630 5629 5616 5603 5596 5593 5562 5522 5513 5500 5491 5481 5473 5466 5461 5455 5447 5439 5433 5428 5424 5420 5419 5420 5419 5418 5418 5416 5414 5413 5414 5417 5420 5426 5434 5443 5451 5459 5469 5479 5491 5500 5509 5515 5518 5521 5523 5527
5618 5609 5600 5595 5583 5584 5572 5537 5509 5500 5490 5478 5465 5453 5445 5439 5432 5424 5415 5408 5403 5400 5396 5395 5395 5395 5393 5392 5389 5388 5388 5389 5391 5393 5397 5403 5412 5421 5430 5439 5452 5465 5475 5484 5492 5498 5500 5502 5505
5603 5596 5577 5569 5562 5560 5555 5512 5494 5488 5476 5462 5448 5435 5428 5420 5410 5399 5390 5383 5379 5375 5372 5372 5372 5372 5370 5369 5369 5369 5370 5370 5370 5371 5373 5377 5383 5392 5401 5410 5426 5442 5455 5463 5469 5475 5478 5480 5482
5598 5583 5577 5559 5549 5536 5533 5505 5478 5473 5456 5443 5429 5420 5409 5399 5387 5377 5370 5362 5355 5351 5348 5347 5349 5349 5348 5349 5351 5354 5354 5354 5354 5355 5356 5358 5361 5368 5378 5388 5403 5422 5438 5447 5452 5457 5460 5463 5465
5590 5576 5553 5547 5533 5525 5519 5489 5460 5446 5433 5423 5412 5402 5390 5379 5369 5360 5352 5343 5336 5332 5328 5326 5327 5326 5328 5331 5335 5338 5339 5340 5342 5345 5348 5349 5351 5354 5360 5369 5384 5402 5419 5431 5438 5442 5446 5448 5450
5576 5564 5546 5527 5509 5487 5475 5463 5454 5430 5415 5401 5389 5380 5367 5359 5351 5342 5334 5326 5321 5315 5311 5312 5313 5314 5316 5318 5321 5324 5327 5330 5334 5337 5340 5341 5342 5346 5352 5359 5368 5384 5401 5415 5424 5428 5432 5433 5434
5566 5546 5528 5507 5490 5470 5445 5439 5432 5415 5401 5386 5372 5363 5351 5343 5334 5326 5320 5314 5309 5304 5302 5302 5303 5304 5305 5307 5311 5314 5318 5322 5326 5330 5331 5332 5334 5339 5345 5352 5359 5370 5383 5396 5405 5410 5415 5418 5420